Content
SEND FEEDBACK

Daily
Averages
Monthly
Summary
United States of America

PINE BLUFFS, WYOMING


Home > North America > United States > Wyoming
Elevation: 1566 meters     Latitude: 41 09N     Longitude: 104 07W

WEATHER
 
SELECT A DAY
Number of Records: 284,610;   Date Range: 3/12/03 - 9/29/14
 
SHARE

PRINT THIS DATA

[ ← Previous Day ]
WEATHER ALMANAC - 31 JANUARY, 2013
[ Next Day → ]
[ °F ]   °C
Weather ElementAverageHighLow
Temperature-4 °C-1.4 °C (4:55 pm)-5.1 °C (7:35 pm)
Dewpoint-7.2 °C-5.6 °C (1:15 am)-8.3 °C (1:55 pm)
Humidity79.1 %88 % (1:35 am)68 % (4:35 pm)
Barometer1016.3 hPa1019.6 hPa (8:35 pm)1010.5 hPa (12:35 am)
Wind Speed13.5 km/h25.9 km/h (1:15 am)
Wind Gust31.5 km/h (4:15 am)
Weather ElementAverage
Visibility15.8 km
Wind DirectionW (264.8 °)

Weather ElementTotal
Precipitation---
Heating Degree Days21.6 (Base 18.3)
Averaged from 66 records on 31 January, 2013
WEATHER CONDITIONS BREAKOUT
WIND DIRECTION BREAKOUT
WEATHER BY HOUR - 31 JANUARY, 2013
[ °F ]   °C
Local TimeTemperatureDewpointHumidityBarometerVisibilityWind DirectionWind SpeedGust SpeedPrecipitationEventsConditions
12:35 AM-2.6 °C-6.4 °C75 %1010.5 hPa16.1 kmNNW (340°)11.1 km/hMostly Cloudy
12:55 AM-2.9 °C-6.2 °C78 %1010.5 hPa16.1 kmNorth (350°)20.4 km/hMostly Cloudy
1:15 AM-3.2 °C-5.6 °C84 %1011.2 hPa16.1 kmNorth (10°)25.9 km/hMostly Cloudy
1:35 AM-4.5 °C-6.2 °C88 %1010.8 hPa16.1 kmNorth (360°)18.5 km/hMostly Cloudy
1:55 AM-4.5 °C-6.3 °C87 %1011.5 hPa16.1 kmNorth (350°)16.7 km/hOvercast
2:15 AM-4.5 °C-6.5 °C86 %1011.5 hPa16.1 kmNNW (340°)18.5 km/hOvercast
2:35 AM-4.7 °C-6.5 °C87 %1011.5 hPa16.1 kmNNW (340°)11.1 km/hMostly Cloudy
2:55 AM-4.3 °C-6.2 °C87 %1011.5 hPa16.1 kmNW (320°)11.1 km/hOvercast
3:15 AM-4.3 °C-6.2 °C87 %1011.5 hPa16.1 kmNNW (330°)16.7 km/hOvercast
3:35 AM-4.1 °C-6.1 °C86 %1011.9 hPa16.1 kmNNW (330°)20.4 km/hOvercast
3:55 AM-4.2 °C-6.5 °C84 %1011.9 hPa16.1 kmNW (320°)18.5 km/hOvercast
4:15 AM-4 °C-6.8 °C81 %1011.9 hPa16.1 kmNNW (330°)20.4 km/h31.5 km/hOvercast
4:35 AM-4.1 °C-7.1 °C80 %1011.9 hPa16.1 kmNNW (330°)20.4 km/hOvercast
4:55 AM-4 °C-7 °C80 %1012.5 hPa16.1 kmNNW (330°)24.1 km/h31.5 km/hOvercast
5:15 AM-4 °C-7.3 °C78 %1012.5 hPa16.1 kmNW (320°)14.8 km/hOvercast
5:35 AM-4.2 °C-7.2 °C80 %1012.9 hPa16.1 kmNW (310°)16.7 km/hOvercast
5:55 AM-4.5 °C-7.4 °C80 %1012.9 hPa16.1 kmNW (320°)13 km/hOvercast
6:15 AM-4.6 °C-7.3 °C82 %1013.2 hPa16.1 kmNW (310°)14.8 km/hOvercast
6:55 AM-4.6 °C-7.3 °C82 %1013.5 hPa16.1 kmNW (310°)11.1 km/hOvercast
7:15 AM-4.8 °C-7.4 °C82 %1013.9 hPa16.1 kmWNW (300°)13 km/hOvercast
7:35 AM-4.8 °C-7.5 °C82 %1013.9 hPa16.1 kmNW (310°)11.1 km/hOvercast
7:55 AM-4.7 °C-7.7 °C80 %1014.9 hPa16.1 kmNNW (340°)14.8 km/hOvercast
8:15 AM-5 °C-8 °C80 %1015.6 hPa16.1 kmNNW (330°)9.3 km/hOvercast
8:35 AM-5 °C-7.6 °C82 %1015.6 hPa11.3 kmNW (320°)5.6 km/hSnowLight Snow
8:55 AM-4.8 °C-7.1 °C84 %1016.3 hPa11.3 kmNNW (340°)22.2 km/h27.8 km/hSnowLight Snow
9:15 AM-4.6 °C-7.2 °C82 %1016.6 hPa11.3 kmNNW (330°)18.5 km/h27.8 km/hOvercast
9:35 AM-4.5 °C-6.9 °C84 %1017.3 hPa16.1 kmNNW (330°)16.7 km/hOvercast
9:55 AM-4.1 °C-7.2 °C79 %1017.6 hPa16.1 kmNW (320°)13 km/hOvercast
10:15 AM-4 °C-7.5 °C77 %1018.3 hPa16.1 kmNNW (340°)24.1 km/hOvercast
10:35 AM-4 °C-7.9 °C75 %1018.3 hPa16.1 kmNNW (340°)22.2 km/hOvercast
10:55 AM-4.1 °C-7.9 °C75 %1018.6 hPa16.1 kmNorth (350°)20.4 km/hOvercast
11:15 AM-4.1 °C-7.8 °C76 %1019 hPa16.1 kmNorth (350°)20.4 km/h29.6 km/hOvercast
11:35 AM-4 °C-7.7 °C76 %1019.3 hPa16.1 kmNorth (360°)18.5 km/h27.8 km/hOvercast
11:55 AM-4.4 °C-8 °C76 %1019.3 hPa16.1 kmNNE (20°)9.3 km/hOvercast
12:15 PM-3.5 °C-7.8 °C73 %1019 hPa16.1 kmNNW (330°)22.2 km/h29.6 km/hMostly Cloudy
12:35 PM-3.7 °C-7.8 °C74 %1019.3 hPa16.1 kmNorth (350°)25.9 km/hMostly Cloudy
12:55 PM-4 °C-7.7 °C76 %1019 hPa16.1 kmNorth (350°)18.5 km/h27.8 km/hOvercast
1:15 PM-4.3 °C-8.1 °C75 %1018.6 hPa11.3 kmNNW (340°)16.7 km/hSnowLight Snow
1:35 PM-4.1 °C-7.9 °C75 %1018.6 hPa11.3 kmNNW (330°)11.1 km/hMostly Cloudy
1:55 PM-4.4 °C-8.3 °C75 %1018.6 hPa16.1 kmNNW (340°)14.8 km/hMostly Cloudy
2:15 PM-4.3 °C-8.2 °C75 %1019 hPa16.1 kmNNW (340°)11.1 km/hOvercast
2:35 PM-4 °C-8 °C74 %1018.6 hPa16.1 kmNW (310°)9.3 km/hOvercast
2:55 PM-3.3 °C-7.6 °C73 %1018.6 hPa16.1 kmWNW (300°)13 km/hOvercast
3:15 PM-3 °C-7.5 °C71 %1018.6 hPa16.1 kmNW (320°)11.1 km/hOvercast
3:35 PM-2.7 °C-7.4 °C70 %1018.3 hPa16.1 kmNW (320°)13 km/hOvercast
3:55 PM-2.6 °C-7.4 °C70 %1018.3 hPa16.1 kmNNW (330°)13 km/hOvercast
4:15 PM-2.5 °C-7.2 °C71 %1018.3 hPa16.1 kmCalmOvercast
4:35 PM-1.9 °C-7.1 °C68 %1018.3 hPa16.1 kmNNW (340°)5.6 km/hOvercast
4:55 PM-1.4 °C-6.7 °C68 %1018.3 hPa16.1 kmWNW (300°)9.3 km/hOvercast
5:15 PM-2 °C-7 °C69 %1018.3 hPa16.1 kmNW (310°)5.6 km/hOvercast
5:35 PM-2.1 °C-7.1 °C69 %1018.3 hPa16.1 kmCalmOvercast
5:55 PM-2.8 °C-6.9 °C74 %1018.3 hPa16.1 kmCalmOvercast
6:15 PM-3.7 °C-7.2 °C77 %1018.3 hPa16.1 kmNorth (10°)7.4 km/hOvercast
6:35 PM-4.7 °C-7.4 °C82 %1017.9 hPa16.1 kmNorth (10°)9.3 km/hOvercast
7:15 PM-4.5 °C-7.3 °C81 %1018.6 hPa16.1 kmCalmOvercast
7:35 PM-5.1 °C-7.4 °C84 %1019 hPa16.1 kmSouth (180°)7.4 km/hOvercast
7:55 PM-5 °C-7.5 °C83 %1019.3 hPa16.1 kmCalmOvercast
8:15 PM-4.6 °C-7 °C84 %1019.3 hPa16.1 kmSouth (170°)5.6 km/hOvercast
8:35 PM-4 °C-6.7 °C82 %1019.6 hPa16.1 kmSouth (170°)11.1 km/hOvercast
8:55 PM-3.9 °C-6.5 °C82 %1019.6 hPa16.1 kmSouth (180°)14.8 km/hOvercast
9:15 PM-4.3 °C-6.7 °C84 %1019.6 hPa16.1 kmSouth (190°)14.8 km/hOvercast
9:35 PM-4.3 °C-6.5 °C85 %1019.6 hPa16.1 kmSSW (200°)11.1 km/hOvercast
10:15 PM-4.6 °C-6.6 °C86 %1019.6 hPa16.1 kmSSW (210°)13 km/hOvercast
10:56 PM-4 °C-6 °C86 %1019.3 hPa16.1 kmSSW (200°)9.3 km/hOvercast
11:36 PM-4 °C-7 °C80 %1019 hPa16.1 kmSSW (210°)11.1 km/hMostly Cloudy
11:58 PM-5 °C-8 °C80 %1019 hPa16.1 kmSSW (210°)9.3 km/hScattered Clouds
Hourly data recorded from KIBM, located 0 kilometers away from Pine Bluffs, Wyoming







STORIES FROM OUR PARTNERS